Theta_e
320 319 318 318 318 318 317 317 317 317 317 317 317 317 316 316 317 317 317 318 317 317 318 318 319 319 316 309 308 327 344 342 325 317 318 326 323 315 314 323 331 326 327 333 335 334 335
319 318 318 318 317 317 317 316 317 316 316 316 316 316 316 316 316 317 317 317 316 317 317 318 319 319 311 300 327 329 323 319 312 313 318 327 321 318 318 322 327 327 326 327 333 332 333
319 318 317 317 317 317 316 317 317 317 317 317 317 317 317 316 316 317 316 316 316 316 317 319 320 318 309 307 326 324 317 308 309 314 322 328 327 314 318 317 325 331 320 325 329 332 331
320 318 317 317 317 316 318 317 317 317 317 317 317 317 316 316 316 316 316 316 315 316 319 322 321 314 305 318 319 322 317 311 313 315 324 324 322 315 312 316 316 322 322 314 323 326 333
320 318 318 317 317 318 318 318 318 318 318 316 316 316 316 316 315 315 314 315 316 318 323 324 313 310 307 323 315 318 317 312 310 315 318 325 317 310 312 306 302 309 305 313 318 327 329
320 318 317 317 318 318 318 318 318 318 316 316 316 316 316 315 315 314 313 313 315 317 319 318 315 306 311 313 314 317 318 315 311 313 316 314 307 303 304 300 295 302 305 309 313 320 327
320 319 318 318 317 318 318 318 318 318 316 316 316 316 315 315 315 313 311 313 308 309 315 305 307 312 314 318 318 315 321 316 314 311 304 308 301 298 302 306 307 308 308 309 318 323 320
320 319 318 318 318 318 318 318 317 316 316 316 315 315 314 314 314 313 309 309 315 307 301 314 312 313 316 316 310 316 320 308 308 303 306 302 298 306 309 309 308 307 303 306 317 325 322
321 319 319 318 318 317 317 317 317 315 315 315 315 314 314 314 312 307 309 313 318 310 299 305 312 311 310 314 310 310 315 311 305 303 304 300 304 310 307 307 306 304 301 303 312 318 323
320 319 318 318 317 317 317 317 317 316 315 315 315 314 313 312 307 312 311 315 316 311 293 301 305 309 310 312 309 316 316 312 306 302 304 302 307 307 304 304 305 297 307 308 315 311 306
320 319 318 317 317 317 317 316 316 316 316 316 316 315 313 310 307 307 313 311 311 307 287 305 305 313 308 304 309 311 316 311 304 304 302 300 302 302 302 304 307 303 308 309 313 307 307
320 319 318 317 317 317 316 316 316 316 316 316 315 314 312 310 309 311 316 316 309 293 289 301 305 303 302 304 306 310 311 313 311 306 305 304 309 305 304 307 308 310 307 308 310 307 300
320 319 318 317 317 316 316 316 316 315 315 314 312 311 309 315 310 318 317 308 294 290 304 300 299 302 300 301 303 305 305 302 299 293 295 303 303 305 307 301 306 304 300 294 292 294 298
321 319 317 316 316 316 316 316 316 315 314 312 310 309 311 315 316 318 314 305 292 298 299 305 304 300 297 301 302 305 303 298 304 302 296 295 294 304 306 302 300 301 299 294 289 291 295
321 319 317 316 316 316 316 316 315 315 313 311 308 314 315 317 318 317 309 295 296 298 302 301 301 296 296 301 301 301 300 300 302 303 294 297 298 308 308 306 303 301 299 304 297 296 293
321 319 317 316 316 316 316 316 315 314 313 311 310 312 313 322 322 315 303 298 301 304 303 304 298 299 295 299 299 298 299 304 304 307 304 299 294 303 309 308 306 301 307 297 297 291 291
321 319 317 316 316 316 316 316 315 314 312 310 313 309 317 318 318 309 299 300 303 305 304 301 299 299 299 299 301 300 299 302 304 303 303 299 297 301 305 299 298 302 300 302 299 297 292
321 319 316 316 316 316 317 316 314 312 310 309 314 306 320 313 305 307 301 301 301 304 306 303 302 301 300 301 299 299 299 302 305 304 298 302 296 294 298 305 306 302 302 303 294 293 299
320 319 316 315 315 316 316 316 314 311 311 311 309 311 313 313 300 301 302 302 303 302 302 303 302 301 302 300 298 301 302 304 306 304 299 300 294 290 296 300 300 297 302 298 298 297 297
320 319 317 315 316 316 316 315 313 312 311 310 310 304 308 309 306 301 300 300 299 303 302 303 304 303 299 298 299 297 300 303 305 303 314 307 296 292 291 296 298 295 299 300 296 291 299
319 319 316 315 316 316 316 315 314 313 311 311 312 301 306 298 300 300 302 301 299 298 303 303 303 303 301 297 298 296 302 302 303 307 302 298 292 295 299 302 300 298 299 301 297 297 299
319 319 316 315 315 316 316 316 315 313 310 318 306 305 308 302 305 305 300 299 299 300 301 300 299 301 304 298 299 298 300 300 297 301 295 298 293 297 294 300 300 297 300 302 301 306 307
319 318 316 315 315 315 316 316 315 313 311 317 316 316 312 305 303 300 298 299 300 304 303 303 303 302 301 302 306 306 305 304 303 298 299 296 295 293 289 299 299 292 297 298 305 308 306
319 319 317 314 314 315 315 316 316 314 312 312 319 315 310 304 301 300 302 303 302 303 302 303 305 303 304 305 303 300 301 301 301 300 300 296 296 294 289 294 285 296 303 302 300 308 309
318 319 317 314 314 314 315 316 317 315 313 312 319 315 314 305 303 302 303 302 304 304 303 302 304 305 306 304 297 294 292 293 297 299 295 297 295 291 288 287 293 298 301 298 297 302 310
317 319 318 315 313 314 314 314 316 316 314 314 317 324 316 310 303 307 304 307 302 302 302 303 306 306 305 301 299 291 290 295 295 296 297 297 297 293 293 289 285 295 301 305 303 295 309
315 317 318 315 313 313 314 314 315 316 315 313 316 326 319 312 309 310 306 306 307 305 302 303 303 302 303 299 295 293 292 301 291 294 293 291 292 289 291 289 295 301 302 304 292 295 305
315 316 318 316 312 312 314 313 314 315 316 314 316 325 318 313 314 313 312 310 308 308 302 304 302 303 299 295 297 297 294 297 293 295 294 293 290 289 291 287 286 305 302 297 302 303 304
314 315 317 316 312 313 313 313 314 314 315 315 317 327 326 315 315 319 316 319 316 314 308 305 303 304 303 299 299 300 296 296 295 289 298 289 297 292 294 294 303 305 304 306 306 303 304
Wind_Speed
13 13 13 14 13 13 14 15 15 15 14 15 16 16 16 15 15 14 15 15 15 15 15 16 13 11 7 5 11 6 10 10 7 5 13 14 14 9 11 7 6 3 4 2 13 16 15
13 14 14 14 14 14 14 14 14 15 15 16 16 17 16 16 15 16 16 15 16 15 16 14 11 8 4 6 5 13 11 8 9 10 12 14 10 10 9 15 12 6 7 9 14 14 16
14 14 15 16 16 16 15 15 15 14 13 14 14 14 15 16 17 17 17 16 15 17 14 12 9 7 5 15 10 12 11 6 9 10 12 15 17 7 7 12 7 22 8 17 6 21 12
13 14 16 16 15 15 15 16 16 16 16 16 15 15 16 16 17 18 17 15 16 15 13 11 6 6 9 11 14 10 10 9 10 11 16 12 10 8 5 9 12 7 7 4 8 18 16
14 15 16 16 16 15 15 15 16 16 15 16 17 17 16 16 17 17 14 15 17 13 10 7 5 5 8 3 9 9 10 12 11 10 15 17 7 4 8 5 6 6 6 9 5 14 19
13 15 15 16 16 16 15 16 16 16 18 17 16 16 15 16 14 14 16 18 11 11 4 8 8 3 8 13 8 10 10 13 12 10 13 8 2 0 5 2 6 6 8 7 12 8 14
14 16 17 17 17 16 17 17 17 17 18 18 17 16 16 12 11 10 10 1 1 2 7 11 10 9 5 12 8 11 12 12 13 9 7 7 5 8 11 11 13 10 8 13 6 8 14
14 16 17 17 16 16 16 17 16 19 18 18 18 18 16 13 7 6 3 4 11 6 6 19 19 18 20 8 10 10 8 6 7 8 8 5 8 12 16 15 16 15 12 5 7 13 13
15 15 16 16 16 17 17 17 17 19 19 18 17 17 16 12 10 3 6 9 12 9 5 12 15 13 11 14 12 9 9 10 8 9 10 8 12 18 17 15 15 13 8 6 9 9 18
15 15 15 16 17 18 18 18 17 18 20 19 16 16 16 13 4 4 8 11 13 6 3 7 11 10 5 1 6 11 11 9 6 11 11 12 19 17 15 12 11 8 10 12 18 13 10
16 15 16 17 18 18 19 20 19 19 17 18 15 13 11 4 8 6 10 5 5 4 4 14 10 8 6 6 5 10 12 10 9 10 7 10 15 13 13 14 10 10 9 2 9 5 4
18 15 16 17 18 19 19 20 21 19 19 18 15 11 12 4 5 12 14 15 3 2 5 14 6 7 10 8 13 10 13 9 10 10 10 13 10 11 8 9 12 10 9 8 9 7 5
17 15 14 16 18 19 20 20 21 21 20 17 14 8 5 7 6 10 9 4 3 5 17 8 4 10 8 8 13 12 11 8 6 2 6 10 14 10 10 6 7 4 4 3 1 2 3
15 15 14 16 17 18 20 21 21 22 21 19 18 9 10 8 9 11 6 5 7 11 12 14 16 9 9 11 14 16 11 7 10 10 5 6 6 8 8 6 8 7 6 5 5 4 7
13 15 15 15 17 18 20 21 21 22 20 20 24 3 5 6 14 6 5 6 6 6 9 9 18 3 11 11 8 10 9 10 9 13 5 2 7 6 8 4 5 8 10 10 3 6 2
13 15 15 15 16 18 20 21 22 23 21 15 4 4 7 16 8 2 3 7 7 10 10 12 11 3 7 2 5 9 3 9 4 10 7 4 6 8 10 8 10 9 3 6 2 2 3
13 14 15 16 16 17 20 21 22 23 26 11 3 3 3 3 9 6 3 4 4 5 7 4 11 11 8 6 14 12 6 10 17 12 11 6 1 8 5 7 11 1 3 1 2 1 6
12 13 14 16 16 17 20 21 21 20 27 2 4 4 6 1 2 4 6 3 4 7 3 4 4 9 10 7 7 4 3 2 8 10 7 7 2 3 5 8 3 4 6 8 5 6 5
12 12 12 15 16 18 19 20 20 16 12 5 4 6 3 3 2 3 3 4 5 9 12 10 5 5 7 6 3 11 2 5 4 9 4 6 6 4 9 7 5 4 6 6 1 1 6
12 11 12 14 16 18 19 20 21 17 10 3 3 4 3 4 5 9 5 5 3 6 3 8 8 5 3 4 6 4 5 2 2 5 4 1 4 2 5 6 5 8 17 9 3 0 3
14 12 12 12 14 16 18 20 21 24 19 3 3 1 2 4 5 4 5 7 4 5 3 3 3 5 6 6 7 4 11 3 3 3 4 2 1 4 7 5 8 9 16 12 8 4 6
12 11 11 13 14 17 19 21 21 25 30 2 2 4 7 0 5 1 3 3 10 9 9 9 9 9 6 5 5 4 5 7 4 1 3 3 5 2 5 10 11 9 17 10 8 10 13
11 10 11 12 13 15 17 18 19 20 20 4 5 5 3 5 4 7 5 6 7 3 3 9 7 6 9 9 1 4 6 6 0 3 6 3 3 4 4 8 11 5 7 10 12 13 10
11 11 10 11 12 15 16 16 17 15 12 3 4 5 3 6 7 6 9 11 11 9 6 9 8 7 2 3 3 4 8 11 6 7 5 4 3 3 2 8 2 5 11 9 9 7 11
11 11 11 11 11 13 16 16 17 16 14 3 3 4 4 6 6 6 8 7 7 5 5 8 6 2 5 5 2 3 3 0 5 6 4 4 2 2 5 4 6 10 4 5 4 8 7
10 10 10 10 11 13 15 16 15 16 16 3 3 2 3 4 5 8 4 3 2 4 5 7 4 4 5 3 2 3 2 2 5 1 1 7 3 5 3 1 5 1 8 8 5 3 7
9 10 9 10 11 13 14 15 16 15 15 4 4 3 2 3 2 3 5 4 5 4 4 5 4 3 4 2 4 3 1 1 2 5 4 2 3 1 3 3 2 4 6 5 5 4 4
10 9 10 8 9 11 12 13 14 15 15 8 6 3 2 3 6 4 3 2 2 4 3 2 1 2 1 1 3 2 2 1 3 4 4 3 2 1 1 2 2 9 7 4 3 5 9
11 10 9 7 8 10 10 11 13 13 13 11 3 4 0 2 4 8 6 2 3 5 1 1 3 2 1 3 2 4 1 2 7 2 4 1 3 4 3 4 1 7 6 3 6 6 5
Wind_Direction
5 2 357 354 351 348 343 341 337 332 329 328 325 323 322 320 319 317 315 314 312 311 310 308 307 311 312 225 252 144 126 136 158 202 210 233 255 218 227 228 141 150 194 179 159 152 142
1 358 355 352 348 345 341 336 332 331 330 327 326 323 321 318 315 312 311 309 307 306 308 305 298 294 240 253 120 147 164 163 188 190 215 233 248 235 249 249 174 339 332 288 195 160 149
356 357 353 350 347 343 338 333 335 328 325 321 319 317 317 315 311 308 307 306 304 303 301 293 284 253 258 246 134 164 159 190 192 190 215 236 251 260 266 282 218 182 80 289 219 158 160
354 354 353 349 345 341 336 334 333 328 324 322 319 317 316 312 308 307 305 300 300 301 294 278 237 254 255 236 243 182 176 187 222 202 234 250 255 273 286 296 291 183 141 219 171 159 148
349 350 349 347 343 337 334 331 329 328 327 327 324 321 317 313 309 308 305 301 299 293 304 159 173 250 260 211 183 213 163 183 207 205 237 252 238 271 316 292 312 262 208 213 336 152 150
349 346 346 344 341 336 333 331 329 328 329 325 325 324 318 317 314 315 311 288 285 311 218 192 264 240 245 222 194 233 183 185 189 206 232 244 120 329 292 286 225 228 231 261 154 209 169
348 343 341 343 340 334 331 328 328 327 328 327 324 323 324 318 313 323 333 258 144 210 242 203 194 240 298 216 167 211 200 192 180 199 194 218 116 210 230 241 247 257 208 228 164 43 101
348 343 340 338 335 330 326 327 326 328 326 326 328 326 325 320 315 316 283 253 275 298 296 222 250 248 256 251 186 184 203 165 185 200 201 134 220 226 221 232 246 254 267 271 135 91 90
346 341 338 335 333 329 327 328 327 331 328 329 328 325 324 320 323 264 244 248 283 296 290 284 213 245 256 150 180 191 172 202 198 207 199 217 210 225 237 230 234 242 245 226 160 132 97
345 341 339 336 333 330 329 327 327 328 332 327 325 325 322 326 309 282 240 258 254 315 299 256 183 237 241 150 190 190 188 200 177 210 215 221 253 210 234 243 226 244 233 254 141 152 162
347 342 340 337 334 331 330 329 327 324 319 317 320 320 310 305 309 289 291 325 316 358 281 147 175 191 199 200 200 192 173 242 229 197 197 245 232 246 216 237 238 243 251 224 134 192 194
348 341 340 338 335 332 330 325 322 324 321 319 320 322 325 184 222 243 277 285 341 292 293 322 142 164 197 189 241 181 173 227 254 262 232 235 236 233 240 215 249 254 272 308 182 192 254
341 338 339 338 334 331 329 326 323 324 322 322 313 302 290 308 249 309 303 327 305 67 302 311 150 160 222 192 221 188 164 216 231 229 277 249 245 222 242 241 260 256 315 301 9 66 183
332 334 336 338 334 331 328 326 324 325 325 323 307 296 223 224 256 283 294 15 72 273 264 295 293 182 209 206 223 158 160 191 244 265 269 219 254 246 216 194 202 236 212 183 161 165 234
326 332 334 336 337 333 330 328 328 328 329 324 311 199 237 239 224 258 78 60 182 220 263 281 314 219 207 215 197 168 169 189 212 237 232 23 234 271 177 189 210 248 250 237 309 227 200
327 329 330 335 337 335 332 331 329 331 328 319 303 293 269 262 186 182 19 202 216 211 286 352 334 75 353 256 207 162 342 17 174 22 36 28 333 292 269 184 236 200 274 262 336 205 190
327 327 327 331 337 337 333 334 332 333 329 330 232 257 218 216 134 63 307 269 196 79 319 47 342 20 67 36 38 360 24 43 5 2 350 342 165 307 269 183 205 111 332 15 60 135 172
319 321 327 330 335 339 336 334 334 338 332 144 296 291 247 150 7 145 248 346 324 10 80 9 38 8 92 348 40 86 70 69 6 339 337 348 299 329 288 303 304 301 208 180 147 291 83
315 315 325 332 336 340 337 335 336 338 355 314 274 259 164 189 258 254 169 120 42 2 4 359 68 97 343 79 55 121 332 44 21 15 26 324 339 10 327 312 23 337 300 288 292 339 182
309 316 328 335 340 341 336 337 336 336 329 270 282 308 340 50 25 36 8 62 106 62 353 343 342 343 120 112 116 6 170 100 41 50 275 14 16 7 219 288 341 343 339 284 246 259 79
316 321 329 334 342 339 338 337 342 336 333 216 240 17 278 14 352 96 22 3 359 58 10 58 303 68 88 34 338 35 358 79 164 111 303 18 207 76 332 295 310 328 315 260 257 248 118
317 318 328 332 345 344 343 341 348 345 334 266 323 5 344 127 244 212 56 55 43 35 6 32 28 15 90 140 157 3 346 352 59 272 216 329 355 89 287 316 322 332 322 273 284 103 116
317 315 322 331 345 344 345 344 351 360 345 338 335 331 352 272 297 80 58 47 51 42 74 43 5 5 58 30 41 162 242 268 298 30 354 324 72 37 311 341 302 334 323 360 70 93 105
315 308 322 334 342 340 342 345 350 7 18 271 276 326 298 304 77 44 68 52 46 15 55 65 2 13 30 210 316 312 302 285 353 337 325 343 30 91 4 9 241 299 15 4 66 79 101
319 311 319 330 340 339 339 345 346 356 3 283 287 359 322 312 118 147 113 117 141 207 85 66 58 356 284 284 268 183 217 220 244 241 323 330 17 352 133 163 281 318 28 359 27 105 131
311 309 311 314 327 337 341 342 345 352 358 300 287 311 318 306 32 67 116 215 277 201 134 122 111 326 315 261 162 59 51 295 327 175 17 323 123 116 352 297 210 217 52 6 5 5 134
308 308 306 312 326 333 338 340 341 352 356 327 281 322 302 303 67 1 50 26 24 350 119 129 150 206 230 300 42 70 205 116 291 1 351 314 8 190 277 271 53 324 49 334 96 237 38
304 306 296 290 313 326 333 336 337 349 356 355 282 276 43 317 296 22 70 24 14 16 57 219 14 284 268 359 79 90 86 214 33 310 315 358 63 263 290 274 191 12 29 51 167 40 73
302 295 293 291 312 318 329 329 336 346 353 343 282 351 265 226 299 318 334 79 30 38 17 186 149 230 57 27 92 132 123 257 170 271 163 280 140 196 100 200 49 57 100 65 73 75 69